H1 CPF 1 NER 2021 2 18 9 5491 glonass139 H2 1808601 9139 43687 2021 2 18 0 0 0 2021 2 21 23 45 0 900 1 1 0 0 0 H9 10 0 59263 0.00000 0 8355837.392 8422250.963 -22565997.874 10 0 59263 900.00000 0 7512488.447 11025363.773 -21725205.890 10 0 59263 1800.00000 0 6892642.785 13557345.929 -20461839.007 10 0 59263 2700.00000 0 6491918.660 15950685.581 -18800469.465 10 0 59263 3600.00000 0 6293966.170 18141343.791 -16773419.339 10 0 59263 4500.00000 0 6271335.649 20071245.904 -14420129.954 10 0 59263 5400.00000 0 6386826.729 21690536.320 -11786391.533 10 0 59263 6300.00000 0 6595260.300 22959502.484 -8923448.112 10 0 59263 7200.00000 0 6845597.498 23850087.827 -5886995.454 10 0 59263 8100.00000 0 7083315.063 24346930.720 -2736091.901 10 0 59263 9000.00000 0 7252935.544 24447886.497 467996.133 10 0 59263 9900.00000 0 7300604.294 24164011.424 3662990.757 10 0 59263 10800.00000 0 7176603.309 23519010.340 6786817.381 10 0 59263 11700.00000 0 6837694.780 22548172.238 9778813.449 10 0 59263 12600.00000 0 6249194.680 21296839.665 12580907.105 10 0 59263 13500.00000 0 5386688.307 19818477.260 15138742.699 10 0 59263 14400.00000 0 4237315.018 18172421.349 17402731.420 10 0 59263 15300.00000 0 2800567.726 16421405.556 19329006.935 10 0 59263 16200.00000 0 1088573.161 14628966.342 20880268.211 10 0 59263 17100.00000 0 -874159.350 12856836.857 22026494.068 10 0 59263 18000.00000 0 -3051510.700 11162437.596 22745516.511 10 0 59263 18900.00000 0 -5397014.911 9596567.823 23023442.771 10 0 59263 19800.00000 0 -7855560.575 8201393.024 22854918.700 10 0 59263 20700.00000 0 -10365461.051 7008811.206 22243229.062 10 0 59263 21600.00000 0 -12860808.653 6039264.953 21200233.106 10 0 59263 22500.00000 0 -15274016.325 5301047.627 19746136.677 10 0 59263 23400.00000 0 -17538442.383 4790131.750 17909104.958 10 0 59263 24300.00000 0 -19590990.410 4490525.895 15724722.765 10 0 59263 25200.00000 0 -21374577.128 4375144.572 13235312.030 10 0 59263 26100.00000 0 -22840366.141 4407154.263 10489118.858 10 0 59263 27000.00000 0 -23949674.881 4541738.828 7539385.071 10 0 59263 27900.00000 0 -24675475.346 4728209.843 4443321.419 10 0 59263 28800.00000 0 -25003425.777 4912372.831 1261001.930 10 0 59263 29700.00000 0 -24932389.906 5039049.291 -1945799.488 10 0 59263 30600.00000 0 -24474421.661 5054647.630 -5114807.743 10 0 59263 31500.00000 0 -23654215.577 4909673.778 -8184456.998 10 0 59263 32400.00000 0 -22508045.675 4561074.536 -11095089.090 10 0 59263 33300.00000 0 -21082237.040 3974313.566 -13790116.238 10 0 59263 34200.00000 0 -19431234.114 3125091.077 -16217124.910 10 0 59263 35100.00000 0 -17615346.706 2000633.215 -18328899.031 10 0 59263 36000.00000 0 -15698268.229 600495.194 -20084342.321 10 0 59263 36900.00000 0 -13744470.323 -1063157.230 -21449281.515 10 0 59263 37800.00000 0 -11816583.047 -2965801.426 -22397134.750 10 0 59263 38700.00000 0 -9972870.337 -5071337.697 -22909432.031 10 0 59263 39600.00000 0 -8264906.377 -7333363.948 -22976177.538 10 0 59263 40500.00000 0 -6735549.922 -9696893.208 -22596046.712 10 0 59263 41400.00000 0 -5417300.979 -12100443.332 -21776414.125 10 0 59263 42300.00000 0 -4331108.255 -14478412.308 -20533211.468 10 0 59263 43200.00000 0 -3485676.587 -16763640.627 -18890618.197 10 0 59263 44100.00000 0 -2877302.613 -18890054.062 -16880590.654 10 0 59263 45000.00000 0 -2490244.612 -20795276.533 -14542238.692 10 0 59263 45900.00000 0 -2297609.824 -22423103.905 -11921061.843 10 0 59263 46800.00000 0 -2262720.675 -23725735.212 -9068059.957 10 0 59263 47700.00000 0 -2340900.987 -24665667.813 -6038735.914 10 0 59263 48600.00000 0 -2481605.479 -25217177.203 -2892010.227 10 0 59263 49500.00000 0 -2630801.218 -25367319.648 310930.820 10 0 59263 50400.00000 0 -2733499.118 -25116416.014 3507830.280 10 0 59263 51300.00000 0 -2736327.276 -24477997.132 6636575.032 10 0 59263 52200.00000 0 -2590036.333 -23478213.796 9636405.407 10 0 59263 53100.00000 0 -2251830.165 -22154737.073 12449095.873 10 0 59263 54000.00000 0 -1687422.863 -20555195.983 15020083.683 10 0 59263 54900.00000 0 -872734.708 -18735218.806 17299523.632 10 0 59263 55800.00000 0 204844.596 -16756160.690 19243248.772 10 0 59263 56700.00000 0 1545678.928 -14682612.896 20813619.112 10 0 59263 57600.00000 0 3137627.983 -12579797.689 21980242.753 10 0 59263 58500.00000 0 4956320.007 -10510957.231 22720556.377 10 0 59263 59400.00000 0 6965944.262 -8534844.555 23020254.887 10 0 59263 60300.00000 0 9120531.057 -6703420.097 22873562.705 10 0 59263 61200.00000 0 11365666.905 -5059848.518 22283342.116 10 0 59263 62100.00000 0 13640574.605 -3636877.879 21261036.917 10 0 59263 63000.00000 0 15880472.911 -2455667.322 19826452.463 10 0 59263 63900.00000 0 18019118.785 -1525110.950 18007376.091 10 0 59263 64800.00000 0 19991427.593 -841685.022 15839044.661 10 0 59263 65700.00000 0 21736063.075 -389823.943 13363468.749 10 0 59263 66600.00000 0 23197889.798 -142808.706 10628625.748 10 0 59263 67500.00000 0 24330186.212 -64129.964 7687536.632 10 0 59263 68400.00000 0 25096525.961 -109268.116 4597243.519 10 0 59263 69300.00000 0 25472248.586 -227815.175 1417707.376 10 0 59263 70200.00000 0 25445457.672 -365848.651 -1789353.096 10 0 59263 71100.00000 0 25017504.079 -468456.834 -4961658.973 10 0 59263 72000.00000 0 24202933.356 -482308.289 -8037581.526 10 0 59263 72900.00000 0 23028898.924 -358156.242 -10957341.767 10 0 59263 73800.00000 0 21534065.080 -53171.088 -13664175.441 10 0 59263 74700.00000 0 19767045.371 466998.603 -16105440.274 10 0 59263 75600.00000 0 17784441.454 1226524.893 -18233643.620 10 0 59263 76500.00000 0 15648564.350 2238132.269 -20007370.170 10 0 59263 77400.00000 0 13424933.384 3502317.314 -21392091.389 10 0 59263 78300.00000 0 11179657.343 5007090.656 -22360840.835 10 0 59263 79200.00000 0 8976807.197 6728253.548 -22894742.101 10 0 59263 80100.00000 0 6875890.101 8630198.888 -22983379.049 10 0 59263 81000.00000 0 4929529.951 10667204.430 -22625001.072 10 0 59263 81900.00000 0 3181450.981 12785165.154 -21826559.283 10 0 59263 82800.00000 0 1664848.266 14923693.166 -20603572.755 10 0 59263 83700.00000 0 401212.511 17018497.928 -18979827.257 10 0 59263 84600.00000 0 -600342.549 19003947.686 -16986912.084 10 0 59263 85500.00000 0 -1343222.906 20815705.001 -14663603.900 10 0 59264 0.00000 0 -1842962.496 22393326.104 -12055109.524 10 0 59264 900.00000 0 -2126314.614 23682714.849 -9212182.082 10 0 59264 1800.00000 0 -2229866.355 24638328.818 -6190128.918 10 0 59264 2700.00000 0 -2198235.720 25225043.575 -3047729.776 10 0 59264 3600.00000 0 -2081929.357 25419598.384 153912.271 10 0 59264 4500.00000 0 -1934952.569 25211561.506 3352564.387 10 0 59264 5400.00000 0 -1812274.108 24603775.462 6486078.075 10 0 59264 6300.00000 0 -1767254.027 23612263.816 9493599.611 10 0 59264 7200.00000 0 -1849144.267 22265604.066 12316752.709 10 0 59264 8100.00000 0 -2100768.261 20603793.588 14900770.228 10 0 59264 9000.00000 0 -2556478.023 18676656.765 17195553.055 10 0 59264 9900.00000 0 -3240475.120 16541860.514 19156635.837 10 0 59264 10800.00000 0 -4165566.480 14262621.406 20746041.563 10 0 59264 11700.00000 0 -5332407.515 11905200.032 21933009.243 10 0 59264 12600.00000 0 -6729264.589 9536286.771 22694581.540 10 0 59264 13500.00000 0 -8332307.212 7220387.092 23016041.956 10 0 59264 14400.00000 0 -10106418.357 5017314.148 22891193.988 10 0 59264 15300.00000 0 -12006489.850 2979891.767 22322477.476 10 0 59264 16200.00000 0 -13979149.756 1151961.917 21320920.290 10 0 59264 17100.00000 0 -15964850.910 -433221.912 19905926.279 10 0 59264 18000.00000 0 -17900234.599 -1754149.865 18104903.367 10 0 59264 18900.00000 0 -19720671.998 -2801712.589 15952738.365 10 0 59264 19800.00000 0 -21362878.348 -3579333.475 13491127.930 10 0 59264 20700.00000 0 -22767491.396 -4102571.594 10767777.766 10 0 59264 21600.00000 0 -23881506.892 -4398212.689 7835484.734 10 0 59264 22500.00000 0 -24660469.379 -4502886.880 4751118.854 10 0 59264 23400.00000 0 -25070326.338 -4461271.639 1574524.468 10 0 59264 24300.00000 0 -25088867.558 -4323956.083 -1632638.506 10 0 59264 25200.00000 0 -24706688.654 -4145057.097 -4808090.826 10 0 59264 26100.00000 0 -23927637.495 -3979688.401 -7890144.260 10 0 59264 27000.00000 0 -22768723.910 -3881390.101 -10818902.221 10 0 59264 27900.00000 0 -21259495.590 -3899628.134 -13537426.971 10 0 59264 28800.00000 0 -19440905.572 -4077470.163 -15992850.207 10 0 59264 29700.00000 0 -17363718.107 -4449537.152 -18137405.040 10 0 59264 30600.00000 0 -15086519.079 -5040318.276 -19929359.002 10 0 59264 31500.00000 0 -12673413.875 -5862921.462 -21333829.620 10 0 59264 32400.00000 0 -10191508.536 -6918313.523 -22323466.582 10 0 59264 33300.00000 0 -7708279.124 -8195083.215 -22878987.162 10 0 59264 34200.00000 0 -5288938.881 -9669738.406 -22989554.359 10 0 59264 35100.00000 0 -2993912.679 -11307526.144 -22652990.401 10 0 59264 36000.00000 0 -876523.729 -13063742.263 -21875821.302 10 0 59264 36900.00000 0 1019011.378 -14885476.490 -20673151.455 10 0 59264 37800.00000 0 2659196.249 -16713720.578 -19068370.525 10 0 59264 38700.00000 0 4022410.310 -18485751.537 -17092698.097 10 0 59264 39600.00000 0 5099559.039 -20137690.211 -14784574.788 10 0 59264 40500.00000 0 5894192.781 -21607127.856 -12188911.620 10 0 59264 41400.00000 0 6422090.521 -22835710.335 -9356212.227 10 0 59264 42300.00000 0 6710327.544 -23771571.055 -6341585.321 10 0 59264 43200.00000 0 6795867.850 -24371510.134 -3203666.976 10 0 59264 44100.00000 0 6723742.275 -24602827.910 -3474.266 10 0 59264 45000.00000 0 6544890.768 -24444735.497 3196786.699 10 0 59264 45900.00000 0 6313761.460 -23889283.079 6334934.478 10 0 59264 46800.00000 0 6085769.285 -22941767.059 9350023.514 10 0 59264 47700.00000 0 5914722.591 -21620599.235 12183528.743 10 0 59264 48600.00000 0 5850327.291 -19956643.910 14780480.369 10 0 59264 49500.00000 0 5935874.438 -17992051.053 17090526.816 10 0 59264 50400.00000 0 6206209.066 -15778634.750 19068905.493 10 0 59264 51300.00000 0 6686065.946 -13375864.844 20677303.207 10 0 59264 52200.00000 0 7388842.333 -10848555.451 21884590.410 10 0 59264 53100.00000 0 8315859.247 -8264346.385 22667415.939 10 0 59264 54000.00000 0 9456142.405 -5691081.538 23010651.780 10 0 59264 54900.00000 0 10786732.288 -3194192.235 22907680.104 10 0 59264 55800.00000 0 12273510.837 -834193.103 22360517.646 10 0 59264 56700.00000 0 13872510.948 1335606.970 21379775.451 10 0 59264 57600.00000 0 15531654.958 3271085.160 19984454.785 10 0 59264 58500.00000 0 17192850.480 4938895.391 18201582.884 10 0 59264 59400.00000 0 18794357.084 6317604.568 16065695.082 10 0 59264 60300.00000 0 20273325.868 7398328.233 13618172.512 10 0 59264 61200.00000 0 21568406.458 8184840.048 10906447.413 10 0 59264 62100.00000 0 22622312.842 8693151.383 7983090.561 10 0 59264 63000.00000 0 23384240.765 8950579.288 4904797.715 10 0 59264 63900.00000 0 23812035.144 8994342.449 1731294.251 10 0 59264 64800.00000 0 23874016.138 8869744.660 -1475821.168 10 0 59264 65700.00000 0 23550386.441 8628022.756 -4654271.535 10 0 59264 66600.00000 0 22834159.749 8323950.224 -7742311.682 10 0 59264 67500.00000 0 21731570.350 8013298.195 -10679929.903 10 0 59264 68400.00000 0 20261945.474 7750261.696 -13410017.324 10 0 59264 69300.00000 0 18457044.699 7584960.624 -15879481.749 10 0 59264 70200.00000 0 16359893.093 7561121.827 -18040283.966 10 0 59264 71100.00000 0 14023156.012 7714041.106 -19850376.051 10 0 59264 72000.00000 0 11507122.883 8068912.104 -21274523.074 10 0 59264 72900.00000 0 8877383.557 8639593.581 -22284992.145 10 0 59264 73800.00000 0 6202293.682 9427868.073 -22862095.288 10 0 59264 74700.00000 0 3550334.481 10423224.157 -22994575.485 10 0 59264 75600.00000 0 987476.513 11603172.479 -22679828.352 10 0 59264 76500.00000 0 -1425343.153 12934083.171 -21923955.022 10 0 59264 77400.00000 0 -3634525.609 14372510.232 -20741645.038 10 0 59264 78300.00000 0 -5595801.159 15866947.839 -19155891.379 10 0 59264 79200.00000 0 -7275824.382 17359945.259 -17197542.889 10 0 59264 80100.00000 0 -8653307.391 18790491.638 -14904702.716 10 0 59264 81000.00000 0 -9719644.968 20096570.443 -12321984.334 10 0 59264 81900.00000 0 -10479006.628 21217775.939 -9499639.635 10 0 59264 82800.00000 0 -10947893.115 22097881.241 -6492576.348 10 0 59264 83700.00000 0 -11154177.540 22687249.426 -3359284.269 10 0 59264 84600.00000 0 -11135673.186 22944985.748 -160691.705 10 0 59264 85500.00000 0 -10938289.936 22840739.912 3041024.820 10 0 59265 0.00000 0 -10613858.720 22356082.337 6183653.759 10 0 59265 900.00000 0 -10217717.413 21485395.908 9206160.737 10 0 59265 1800.00000 0 -9806160.805 20236246.900 12049874.716 10 0 59265 2700.00000 0 -9433864.227 18629217.692 14659625.984 10 0 59265 3600.00000 0 -9151389.074 16697210.357 16984813.131 10 0 59265 4500.00000 0 -9002876.541 14484249.167 18980378.779 10 0 59265 5400.00000 0 -9024026.418 12043832.636 20607675.804 10 0 59265 6300.00000 0 -9240445.979 9436903.496 21835208.090 10 0 59265 7200.00000 0 -9666438.106 6729520.867 22639232.353 10 0 59265 8100.00000 0 -10304279.348 3990330.753 23004210.422 10 0 59265 9000.00000 0 -11144018.072 1287938.946 22923104.097 10 0 59265 9900.00000 0 -12163801.286 -1311705.656 22397507.517 10 0 59265 10800.00000 0 -13330716.765 -3747810.157 21437614.915 10 0 59265 11700.00000 0 -14602115.798 -5967016.943 20062024.440 10 0 59265 12600.00000 0 -15927361.951 -7925369.841 18297381.582 10 0 59265 13500.00000 0 -17249933.481 -9589886.890 16177868.587 10 0 59265 14400.00000 0 -18509792.276 -10939675.474 13744548.956 10 0 59265 15300.00000 0 -19645920.766 -11966544.368 11044578.907 10 0 59265 16200.00000 0 -20598921.046 -12675087.990 8130300.216 10 0 59265 17100.00000 0 -21313567.384 -13082240.063 5058231.182 10 0 59265 18000.00000 0 -21741204.899 -13216315.876 1887974.817 10 0 59265 18900.00000 0 -21841893.187 -13115583.852 -1318934.984 10 0 59265 19800.00000 0 -21586204.081 -12826426.928 -4500227.022 10 0 59265 20700.00000 0 -20956596.957 -12401171.590 -7594102.742 10 0 59265 21600.00000 0 -19948312.575 -11895676.587 -10540438.807 10 0 59265 22500.00000 0 -18569746.587 -11366783.582 -13281958.560 10 0 59265 23400.00000 0 -16842285.701 -10869737.978 -15765349.050 10 0 59265 24300.00000 0 -14799612.083 -10455689.413 -17942301.585 10 0 59265 25200.00000 0 -12486503.899 -10169378.177 -19770455.201 10 0 59265 26100.00000 0 -9957181.179 -10047105.859 -21214224.432 10 0 59265 27000.00000 0 -7273265.184 -10115076.587 -22245495.130 10 0 59265 27900.00000 0 -4501435.637 -10388179.487 -22844174.748 10 0 59265 28800.00000 0 -1710882.925 -10869264.396 -22998586.273 10 0 59265 29700.00000 0 1029339.160 -11548941.983 -22705698.117 10 0 59265 30600.00000 0 3652950.445 -12405917.375 -21971185.369 10 0 59265 31500.00000 0 6098961.703 -13407843.737 -20809321.078 10 0 59265 32400.00000 0 8313968.017 -14512660.342 -19242699.469 10 0 59265 33300.00000 0 10254123.148 -15670359.142 -17301796.241 10 0 59265 34200.00000 0 11886713.167 -16825105.524 -15024374.368 10 0 59265 35100.00000 0 13191264.493 -17917623.916 -12454746.825 10 0 59265 36000.00000 0 14160141.027 -18887747.484 -9642910.611 10 0 59265 36900.00000 0 14798606.511 -19677024.028 -6643569.181 10 0 59265 37800.00000 0 15124350.969 -20231267.716 -3515062.672 10 0 59265 38700.00000 0 15166502.638 -20502948.459 -318227.256 10 0 59265 39600.00000 0 14964168.613 -20453317.626 2884793.428 10 0 59265 40500.00000 0 14564567.296 -20054179.983 6031760.967 10 0 59265 41400.00000 0 14020832.952 -19289236.810 9061554.794 10 0 59265 42300.00000 0 13389586.279 -18154943.411 11915360.525 10 0 59265 43200.00000 0 12728374.550 -16660844.814 14537810.708 10 0 59265 44100.00000 0 12093090.029 -14829375.451 16878055.837 10 0 59265 45000.00000 0 11535475.816 -12695131.185 18890745.056 10 0 59265 45900.00000 0 11100824.243 -10303643.964 20536898.189 10 0 59265 46800.00000 0 10825964.397 -7709709.952 21784653.006 10 0 59265 47700.00000 0 10737622.969 -4975340.401 22609874.153 10 0 59265 48600.00000 0 10851226.727 -2167419.760 22996612.982 10 0 59265 49500.00000 0 11170196.427 644832.633 22937410.256 10 0 59265 50400.00000 0 11685761.386 3392493.017 22433436.550 10 0 59265 51300.00000 0 12377302.418 6009548.057 21494468.067 10 0 59265 52200.00000 0 13213208.853 8435387.065 20138698.400 10 0 59265 53100.00000 0 14152214.099 10617069.479 18392389.669 10 0 59265 54000.00000 0 15145154.332 12511274.872 16289369.253 10 0 59265 54900.00000 0 16137077.209 14085855.603 13870381.102 10 0 59265 55800.00000 0 17069612.766 15320928.432 11182303.367 10 0 59265 56700.00000 0 17883507.472 16209460.432 8277246.635 10 0 59265 57600.00000 0 18521215.283 16757325.385 5211549.456 10 0 59265 58500.00000 0 18929436.721 16982828.734 2044690.084 10 0 59265 59400.00000 0 19061498.880 16915721.453 -1161864.797 10 0 59265 60300.00000 0 18879475.503 16595744.615 -4345852.235 10 0 59265 61200.00000 0 18355956.941 16070766.175 -7445422.671 10 0 59265 62100.00000 0 17475394.311 15394588.824 -10400343.396 10 0 59265 63000.00000 0 16234959.872 14624521.728 -13153172.043 10 0 59265 63900.00000 0 14644886.026 13818818.964 -15650376.780 10 0 59265 64800.00000 0 12728267.150 13034093.216 -17843381.084 10 0 59265 65700.00000 0 10520331.105 12322814.307 -19689512.408 10 0 59265 66600.00000 0 8067209.589 11730998.571 -21152836.015 10 0 59265 67500.00000 0 5424257.527 11296186.945 -22204857.604 10 0 59265 68400.00000 0 2653990.583 11045797.440 -22825081.002 10 0 59265 69300.00000 0 -176274.032 10995921.815 -23001409.946 10 0 59265 70200.00000 0 -2996975.883 11150617.476 -22730386.143 10 0 59265 71100.00000 0 -5738962.919 11501724.735 -22017258.844 10 0 59265 72000.00000 0 -8336126.377 12029217.353 -20875884.429 10 0 59265 72900.00000 0 -10727909.798 12702071.751 -19328457.800 10 0 59265 73800.00000 0 -12861588.132 13479618.361 -17405080.531 10 0 59265 74700.00000 0 -14694222.328 14313318.048 -15143174.053 10 0 59265 75600.00000 0 -16194208.519 15148888.528 -12586749.139 10 0 59265 76500.00000 0 -17342357.818 15928690.697 -9785545.926 10 0 59265 77400.00000 0 -18132462.428 16594273.662 -6794061.417 10 0 59265 78300.00000 0 -18571325.522 17088970.402 -3670483.766 10 0 59265 79200.00000 0 -18678254.978 17360433.790 -475554.571 10 0 59265 80100.00000 0 -18484043.678 17363005.153 2728617.918 10 0 59265 81000.00000 0 -18029480.856 17059814.778 5879770.940 10 0 59265 81900.00000 0 -17363458.699 16424525.133 8916700.471 10 0 59265 82800.00000 0 -16540755.352 15442642.904 11780451.377 10 0 59265 83700.00000 0 -15619588.905 14112344.260 14415461.095 10 0 59265 84600.00000 0 -14659046.278 12444778.356 16770634.607 10 0 59265 85500.00000 0 -13716495.727 10463836.144 18800330.058 10 0 59266 0.00000 0 -12845091.928 8205393.929 20465236.510 10 0 59266 900.00000 0 -12091478.536 5716062.481 21733127.764 10 0 59266 1800.00000 0 -11493783.346 3051494.342 22579478.194 10 0 59266 2700.00000 0 -11079991.063 274317.707 22987930.144 10 0 59266 3600.00000 0 -10866759.326 -2548217.177 22950604.459 10 0 59266 4500.00000 0 -10858728.218 -5346782.921 22468248.849 10 0 59266 5400.00000 0 -11048351.005 -8052606.848 21550221.739 10 0 59266 6300.00000 0 -11416253.015 -10600082.037 20214311.955 10 0 59266 7200.00000 0 -11932103.497 -12929250.520 18486397.559 10 0 59266 8100.00000 0 -12555964.035 -14988056.908 16399949.907 10 0 59266 9000.00000 0 -13240057.257 -16734279.959 13995391.792 10 0 59266 9900.00000 0 -13930881.994 -18137062.616 11319321.284 10 0 59266 10800.00000 0 -14571586.366 -19177977.559 8423615.431 10 0 59266 11700.00000 0 -15104499.275 -19851584.340 5364430.376 10 0 59266 12600.00000 0 -15473713.775 -20165455.154 2201116.746 10 0 59266 13500.00000 0 -15627613.288 -20139668.477 -1004929.054 10 0 59266 14400.00000 0 -15521233.656 -19805792.017 -4191455.516 10 0 59266 15300.00000 0 -15118360.633 -19205397.877 -7296565.378 10 0 59266 16200.00000 0 -14393273.277 -18388172.639 -10259919.904 10 0 59266 17100.00000 0 -13332058.431 -17409702.157 -13023914.375 10 0 59266 18000.00000 0 -11933439.458 -16329024.681 -15534801.357 10 0 59266 18900.00000 0 -10209082.771 -15206055.724 -17743739.599 10 0 59266 19800.00000 0 -8183367.604 -14098993.511 -19607747.801 10 0 59266 20700.00000 0 -5892627.192 -13061814.622 -21090544.395 10 0 59266 21600.00000 0 -3383891.570 -12141965.591 -22163256.891 10 0 59266 22500.00000 0 -713183.238 -11378347.859 -22804986.893 10 0 59266 23400.00000 0 2056564.280 -10799681.041 -23003219.726 10 0 59266 24300.00000 0 4857879.178 -10423313.494 -22754070.653 10 0 59266 25200.00000 0 7621317.373 -10254530.185 -22062362.795 10 0 59266 26100.00000 0 10278115.442 -10286386.969 -20941535.084 10 0 59266 27000.00000 0 12762820.539 -10500078.075 -19413381.855 10 0 59266 27900.00000 0 15015788.160 -10865821.068 -17507628.878 10 0 59266 28800.00000 0 16985443.920 -11344221.678 -15261353.939 10 0 59266 29700.00000 0 18630215.415 -11888060.453 -12718263.105 10 0 59266 30600.00000 0 19920053.972 -12444425.289 -9927836.740 10 0 59266 31500.00000 0 20837483.219 -12957099.099 -6944362.135 10 0 59266 32400.00000 0 21378131.439 -13369100.979 -3825871.908 10 0 59266 33300.00000 0 21550726.416 -13625272.650 -633009.349 10 0 59266 34200.00000 0 21376554.177 -13674800.022 2572156.491 10 0 59266 35100.00000 0 20888405.776 -13473562.548 5727342.234 10 0 59266 36000.00000 0 20129057.813 -12986210.394 8771263.924 10 0 59266 36900.00000 0 19149351.970 -12187881.194 11644828.887 10 0 59266 37800.00000 0 18005955.618 -11065483.534 14292282.236 10 0 59266 38700.00000 0 16758898.603 -9618492.679 16662285.769 10 0 59266 39600.00000 0 15468990.425 -7859224.829 18708908.470 10 0 59266 40500.00000 0 14195226.547 -5812577.963 20392510.028 10 0 59266 41400.00000 0 12992292.544 -3515249.645 21680501.035 10 0 59266 42300.00000 0 11908270.283 -1014463.912 22547966.026 10 0 59266 43200.00000 0 10982641.469 1633740.505 22978138.327 10 0 59266 44100.00000 0 10244671.209 4366590.372 22962718.406 10 0 59266 45000.00000 0 9712238.274 7116941.206 22502030.282 10 0 59266 45900.00000 0 9391160.050 9815826.742 21605013.420 10 0 59266 46800.00000 0 9275039.660 12395090.230 20289050.387 10 0 59266 47700.00000 0 9345641.091 14789989.594 18579633.416 10 0 59266 48600.00000 0 9573776.297 16941669.620 16509875.841 10 0 59266 49500.00000 0 9920666.958 18799399.554 14119877.099 10 0 59266 50400.00000 0 10339723.825 20322483.856 11455952.809 10 0 59266 51300.00000 0 10778668.999 21481767.220 8569743.967 10 0 59266 52200.00000 0 11181911.992 22260671.527 5517221.683 10 0 59266 53100.00000 0 11493079.516 22655721.575 2357606.255 10 0 59266 54000.00000 0 11657592.183 22676537.757 -847778.904 10 0 59266 54900.00000 0 11625178.982 22345296.012 -4036696.405 10 0 59266 55800.00000 0 11352222.747 21695677.676 -7147203.827 10 0 59266 56700.00000 0 10803836.631 20771353.445 -10118858.795 10 0 59266 57600.00000 0 9955582.755 19624065.193 -12893896.368 10 0 59266 58500.00000 0 8794759.130 18311386.501 -15418355.399 10 0 59266 59400.00000 0 7321199.074 16894256.265 -17643131.540 10 0 59266 60300.00000 0 5547547.765 15434389.318 -19524936.134 10 0 59266 61200.00000 0 3499002.689 13991673.213 -21027141.969 10 0 59266 62100.00000 0 1212527.208 12621660.721 -22120499.358 10 0 59266 63000.00000 0 -1264431.409 11373263.542 -22783708.502 10 0 59266 63900.00000 0 -3875667.170 10286744.167 -23003836.905 10 0 59266 64800.00000 0 -6558312.965 9392090.103 -22776573.731 10 0 59266 65700.00000 0 -9245224.082 8707838.587 -22106316.002 10 0 59266 66600.00000 0 -11867548.944 8240400.860 -21006084.865 10 0 59266 67500.00000 0 -14357380.543 7983913.976 -19497273.349 10 0 59266 68400.00000 0 -16650378.460 7920625.860 -17609230.285 10 0 59266 69300.00000 0 -18688252.345 8021796.772 -15378688.319 10 0 59266 70200.00000 0 -20421003.471 8249078.489 -12849047.013 10 0 59266 71100.00000 0 -21808831.012 8556312.172 -10069524.935 10 0 59266 72000.00000 0 -22823623.560 8891668.148 -7094197.475 10 0 59266 72900.00000 0 -23449973.995 9200036.227 -3980939.424 10 0 59266 73800.00000 0 -23685675.826 9425564.492 -790293.392 10 0 59266 74700.00000 0 -23541681.040 9514238.236 2415713.194 10 0 59266 75600.00000 0 -23041522.321 9416389.031 5574778.822 10 0 59266 76500.00000 0 -22220225.117 9089027.034 8625542.140 10 0 59266 77400.00000 0 -21122756.489 8497897.262 11508775.490 10 0 59266 78300.00000 0 -19802077.122 7619172.489 14168534.228 10 0 59266 79200.00000 0 -18316879.289 6440710.888 16553239.473 10 0 59266 80100.00000 0 -16729106.461 4962825.142 18616673.430 10 0 59266 81000.00000 0 -15101358.964 3198530.271 20318868.577 10 0 59266 81900.00000 0 -13494294.341 1173259.303 21626874.274 10 0 59266 82800.00000 0 -11964130.888 -1075941.852 22515386.813 10 0 59266 83700.00000 0 -10560358.013 -3501707.511 22967231.749 10 0 59266 84600.00000 0 -9323748.098 -6048080.375 22973690.065 10 0 59266 85500.00000 0 -8284751.842 -8652603.864 22534662.586 99